Orbital elements:
2007 FV42 = 1991 RQ32                                    Earth MOID = 0.1287 AU
Epoch 2008 Nov. 30.0 TT = JDT 2454800.5                 MPC
M 158.44837              (2000.0)            P               Q
n   0.30709608     Peri.  181.65336     +0.21980454     +0.96103014
a   2.1758045      Node   101.06864     -0.89307205     +0.26738420
e   0.4728994      Incl.    9.83604     -0.39256628     -0.07019087
P   3.21           H   17.9           G   0.15           U   0
Residuals in seconds of arc
910905 413  0.4-  0.0     070518 A24  0.2+  0.2+    070611 379  0.4-  0.2+
910905 413  0.5+  0.1-    070518 A24  0.1+  0.2+    070611 379  0.4-  0.2+
070320 703  0.2-  0.4-    070518 A24  0.2+  0.4+    070611 379  0.3-  0.2+
070320 703  0.2-  0.8-    070518 A24  0.7+  0.4-    070611 379  0.5-  0.3+
070320 703  0.3-  1.3+    070518 A24  0.1-  0.4+    070611 379  0.3-  0.3+
070320 703  0.2-  0.7+    070518 A24  0.3+  0.3+    070611 379  0.1-  0.2+
070320 703  0.9+  0.5+    070518 A24  0.2+  0.3+    070611 379  0.3-  0.2+
070320 703  1.0-  0.3+    070518 H51  0.2-  0.1-    070611 379  0.1-  0.2+
070320 703 (0.2-  2.0-)   070518 H51  0.1-  0.2-    070611 379  0.5-  0.2+
070320 703  0.0   0.6-    070518 H51  0.1-  0.2-    070611 379  0.2-  0.0
070320 703  0.4+  0.3+    070518 H51  0.0   0.1-    070611 J46  0.9-  0.6+
070320 703 (0.6+  1.6-)   070518 H51  0.0   0.1-    070611 J46  0.3-  0.7+
070320 703  0.1-  0.1-    070518 H51  0.1-  0.1-    070612 379  0.3-  0.3+
070320 703  0.1-  0.4-    070518 H51  0.1-  0.0     070612 379  0.4-  0.4+
070320 703  0.7-  0.1-    070518 H51  0.0   0.1-    070612 379  0.3-  0.2-
070320 703  0.2-  0.6+    070518 H51  0.0   0.1-    070612 379  0.5-  0.1+
070325 G96  0.1+  0.1-    070518 H51  0.1+  0.2-    070612 379  0.3-  0.1+
070325 G96  0.3+  0.2-    070518 H45  0.2+  0.2-    070612 379  0.5-  0.3+
070325 G96  0.2+  0.1+    070518 H45  0.1+  0.1-    070612 379  0.1+  0.5+
070325 G96  0.5+  0.2-    070518 H45  0.1+  0.2-    070612 379  0.3-  0.4+
070416 703  0.1+  0.6-    070518 H45  0.1+  0.0     070612 379  0.2-  0.2+
070416 703  0.0   0.4-    070518 H45  0.2+  0.1-    070612 379  0.3-  0.2-
070416 703  0.1+  0.3-    070518 H45  0.0   0.1-    070612 379  0.0   0.2-
070416 703  0.5-  0.1-    070518 113  0.1-  0.2-    070612 379  0.2-  0.3+
070420 448  0.0   0.2-    070518 113  0.0   0.2-    070613 H45  0.0   0.2-
070420 448  0.2-  0.1-    070518 113  0.0   0.1-    070613 H45  0.5-  0.3-
070420 448  0.0   0.2-    070518 113  0.1+  0.1-    070613 H45  0.0   0.3-
070420 448  0.2-  0.3-    070519 A24  0.3+  0.5+    070613 H45  0.0   0.4-
070420 448  0.2+  0.1-    070519 A24  0.3+  0.4+    070613 H45  0.0   0.3-
070421 071  0.5+  0.0     070519 A24  0.3+  0.4+    070613 H45  0.0   0.1-
070421 071  0.1+  0.0     070519 A24  0.2+  0.4+    070613 H45  0.2-  0.2-
070421 071  0.3-  0.1-    070519 A24  0.3+  0.3+    070613 J47  0.1-  0.2-
070423 703  0.0   0.2+    070519 A24  0.1+  0.2+    070613 J47  0.4+  0.1-
070423 703  0.0   0.2-    070519 A24  0.0   0.2+    070613 J47  0.2+  0.1-
070423 703  0.2-  0.5-    070519 A24  0.0   0.3+    070613 J47  0.2+  0.1-
070423 703  0.7-  0.0     070519 A24  0.0   0.2+    070613 J47  0.1+  0.1-
070427 448  0.1+  0.1-    070519 H51  0.2+  0.1-    070614 H45  0.3+  0.2-
070427 448  0.1-  0.0     070519 H51  0.2+  0.3-    070614 H45  0.6+  0.1+
070427 448  0.0   0.1-    070519 H51  0.6+  0.7-    070614 H45  0.4+  0.0
070427 A81  0.4+  0.1-    070519 H51 (0.7+  1.7-)   070614 H45  0.3+  0.1-
070427 A81  0.5+  0.2-    070519 H51 (0.1-  2.2-)   070614 H45  0.4+  0.1+
070427 A81  0.3+  0.1-    070519 H51 (0.1-  2.2-)   070614 H45  0.1+  0.2+
070428 A56  0.2+  0.5+    070519 H51  0.2+  0.5-    070615 H51  0.1+  0.2-
070428 A56  0.4+  0.2+    070519 151  0.1-  0.0     070615 H51  0.2-  0.2-
070428 A56  1.2+  0.4-    070519 151  0.2-  0.0     070615 H51  0.3+  0.0
070501 461  0.1+  0.1+    070519 151  0.2-  0.0     070615 H51  0.5+  0.1-
070501 461  0.1-  0.1+    070519 151  0.1-  0.0     070615 H51  0.3+  0.3-
070501 461  0.0   0.2+    070519 151  0.2-  0.1-    070615 H51  0.0   0.2-
070501 461  0.0   0.2+    070519 151  0.1-  0.1-    070615 H51  0.1+  0.3-
070506 511  0.4+  0.1+    070519 151  0.1-  0.0     070615 H51  0.1-  0.6-
070506 511  0.5-  0.1-    070519 473  0.1-  0.2+    070615 H51  0.2-  0.7-
070506 511  0.3+  0.3+    070519 473  0.1-  0.3+    070615 H51  0.2-  0.3-
070506 511  0.1+  0.1+    070519 473  0.0   0.2+    070615 H51  1.3+  0.1-
070506 511  0.0   0.2-    070519 A53  0.0   0.3+    070615 H51  0.0   0.2-
070506 511  0.2+  0.2+    070519 A53  0.0   0.5+    070615 H51  0.5+  0.5-
070506 511  0.1+  0.0     070519 A53  0.0   0.3+    070616 A06  0.0   0.1+
070506 511  0.4+  0.0     070521 H45  0.0   0.1-    070616 A06  0.3-  0.0
070506 511  0.1-  0.3-    070521 H45  0.2+  0.2-    070616 A06  0.4-  0.0
070506 511  0.2-  0.2+    070521 H45  0.3+  0.2-    070616 B19  0.5+  0.6-
070507 448  0.2-  0.2-    070521 H45  0.1+  0.1-    070616 B19  0.5+  0.7-
070507 448  0.0   0.1-    070521 H45  0.2+  0.3-    070616 B19  0.5+  0.6-
070507 448  0.0   0.2-    070521 H45  0.2+  0.2-    070616 834  0.1+  0.3-
070507 379  0.3-  0.0     070521 379  0.5+  0.0     070616 834  0.2-  0.0
070507 379  0.1-  0.4+    070521 379  0.3+  0.3-    070616 834  0.3-  0.2+
070507 379  0.2+  0.6+    070521 379  0.3-  0.2+    070616 379  0.3-  0.3+
070507 379  0.6+  0.5+    070521 379  0.3+  0.0     070616 379  0.2+  0.3+
070507 A24  0.1+  0.4+    070521 379  0.3+  0.4+    070616 379  0.4-  0.2+
070507 A24  0.7+  0.2+    070522 379  0.3-  0.0     070616 379  0.2-  0.5+
070508 A24  0.3+  0.2+    070522 379  0.4-  0.2+    070616 379  0.2-  0.3+
070508 A24  0.3+  0.1+    070522 379  0.4-  0.3+    070616 379  0.4-  0.2+
070508 A24  0.6+  0.3+    070522 379  0.2-  0.1+    070616 379  0.2-  0.3+
070509 A24  0.2+  0.0     070522 379  0.4-  0.0     070616 379  0.2-  0.4+
070509 A24  0.3+  0.2+    070522 379  0.3-  0.1-    070616 379  0.2-  0.3+
070509 130  0.4-  0.3-    070522 379  0.3-  0.0     070616 379  0.5-  0.3+
070509 130  0.0   0.4-    070522 379  0.2-  0.1-    070616 355  0.3+  0.2-
070509 130  0.0   0.2-    070522 379  0.5-  0.1+    070616 355  0.3+  0.2-
070509 130  0.3-  0.2-    070522 379  0.4-  0.4+    070616 355  0.3-  0.0
070510 A13  0.3+  0.5-    070524 A78 (0.7-  1.6+)   070616 355  0.0   0.1-
070511 A13  0.3+  0.1-    070524 A78  0.4-  0.1+    070616 355  0.1+  0.1+
070511 H51  0.1+  0.1+    070524 A78  0.3-  0.4-    070619 071  0.1+  0.0
070511 H51  0.0   0.0     070524 A24  0.2+  0.0     070619 071  1.0+  0.7-
070511 H51  0.0   0.0     070525 A24  0.4+  0.1+    070619 071  0.0   0.4+
070511 H51  0.1+  0.1+    070525 A24  0.8+  0.3+    070619 071  1.5+  0.9-
070511 H51  0.0   0.0     070525 A24  0.9+  0.1+    070619 071  0.3+  0.0
070511 H51  0.1+  0.2-    070526 300  0.1-  0.4+    070619 379  0.2-  0.1+
070511 H51  0.2+  0.0     070526 300  0.5+  0.5+    070619 379  0.1-  0.1+
070511 H51  0.0   0.2-    070526 300  0.4-  0.7+    070619 379  0.0   0.1-
070511 H51  0.2-  0.0     070526 379  0.2+  0.0     070619 379  0.1+  0.2+
070511 H51  0.1-  0.1+    070526 379  0.1+  0.0     070619 379  0.0   0.0
070511 379  0.1-  0.1+    070526 379  0.2+  0.1+    070619 379  0.1-  0.1+
070511 379  0.6+  0.2+    070526 379  0.2-  0.0     070619 379  0.0   0.1+
070511 379  0.5+  0.2-    070526 379  0.2-  0.1-    070619 379  0.2-  0.1-
070511 379  0.1+  0.3+    070526 379  0.1+  0.2+    070619 379  0.0   0.1-
070511 379  0.3-  0.2+    070528 300  0.1-  0.2-    070619 379  0.0   0.1-
070511 A06  0.3-  0.1+    070528 300  0.2+  0.3-    070619 379  0.1-  0.3-
070512 A06  0.0   0.3+    070528 300  0.1-  0.3-    070619 379  0.2-  0.0
070512 A78  0.3-  0.3-    070528 300  0.0   0.3-    070619 379  0.1+  0.1+
070512 A78  0.4-  0.4-    070528 300  0.2+  0.2-    070619 379  0.1+  0.1-
070512 A78  0.2-  0.5-    070601 H51  0.4+  0.1-    070619 355  0.1-  0.4-
070512 157  0.2-  0.4-    070601 H51  0.4+  0.1+    070619 355  0.1-  0.3-
070512 157  0.1-  0.0     070601 H51  0.3+  0.1-    070620 379  0.3-  0.2-
070512 157  0.2-  0.1+    070601 H51  0.2+  0.2-    070620 379  0.2-  0.1+
070512 157  0.3+  0.1-    070601 H51  0.2+  0.2-    070620 379  0.2-  0.0
070512 157  0.6+  0.2+    070601 H51  0.1+  0.2-    070620 379  0.2-  0.3-
070512 157  0.1+  0.2-    070601 H51  0.3+  0.4-    070620 379  0.0   0.1-
070512 A53  0.2+  0.3+    070601 H51  0.2+  0.1+    070620 379  0.2-  0.2-
070512 A53  0.2+  0.2+    070601 H51  0.0   0.1-    070620 379  0.3-  0.0
070512 A53  0.1+  0.1+    070601 H51  0.2-  0.1-    070620 379  0.3-  0.4-
070512 A53  0.2+  0.4+    070601 H51  0.2+  0.0     070620 379  0.1+  0.3-
070513 A24  0.5+  0.3+    070601 H51  0.2+  0.0     070621 E17  0.5-  0.3-
070513 A24  0.5+  0.5+    070601 H51  0.3+  0.2-    070621 E17  0.4-  0.3-
070513 A24  0.8+  0.3+    070601 H51  0.4+  0.0     070621 E17  0.6-  0.2-
070513 A24  0.5+  0.3+    070601 H51  0.3+  0.1-    070621 A53  0.3-  0.2+
070513 A24  0.1-  0.4+    070601 H51  0.3+  0.2-    070621 A53  0.4-  0.1+
070513 G96  0.4-  0.5-    070601 H51  0.2+  0.1-    070621 A53  0.1-  0.1+
070513 G96  0.4-  0.5-    070601 H51  1.0+  0.5-    070621 A53  0.0   0.1+
070513 G96  0.5-  0.6-    070601 H51  0.1-  0.1+    070624 A53  0.1-  0.2+
070513 G96  0.6-  0.6-    070601 H51  0.0   0.1-    070624 A53  0.1+  0.1+
070513 448  0.1-  0.1-    070601 H51  0.1+  0.1-    070624 A53  0.3-  0.2+
070513 448  0.1-  0.2-    070601 H51  0.6+  0.0     070624 A53  0.2-  0.4+
070513 448  0.2-  0.1-    070601 H51  0.4+  0.1-    070628 834  0.1+  0.2+
070513 A78  0.2+  0.2+    070601 H45  0.2+  0.0     070628 834  0.1+  0.4+
070513 A78  1.0-  0.7-    070601 H45  0.0   0.1-    070628 834  0.0   0.3+
070513 A78  0.5-  1.2-    070601 H45  0.1+  0.1-    070709 I77  0.5+  0.3-
070513 A53  0.3+  0.4+    070601 H45  0.2-  0.2-    070709 I77  0.2+  0.0
070513 A53  0.1+  0.4+    070601 H45  0.1+  0.3-    070709 I77  0.2+  0.1-
070513 A53  0.3+  0.2+    070601 H45  0.0   0.0     070726 E12  0.1+  0.1-
070514 H51  0.2-  0.4-    070603 A53  0.5-  0.2+    070726 E12  0.1+  0.1-
070514 H51  0.3+  0.4+    070603 A53  0.1-  0.2+    070726 E12  0.1+  0.2-
070514 H51  0.0   0.4+    070603 A53  0.1-  0.5+    070805 808  0.2+  0.2-
070514 H51  0.5-  0.4+    070603 A53  0.5-  0.2+    070805 808  0.3+  0.0
070514 H45  0.1+  0.2-    070605 834  0.2-  0.1-    070805 808  0.3+  0.0
070514 H45  0.2+  0.2-    070605 834  0.1+  0.0     070812 E12  0.0   0.2+
070514 H45  0.1-  0.2-    070605 834  0.1+  0.2-    070812 E12  0.1+  0.1+
070514 H45  0.1+  0.2-    070605 J59  0.2+  0.1-    070812 E12  0.3+  0.1-
070514 H45  0.1-  0.2-    070606 J59  0.3-  0.9-    070812 E12  0.4+  0.0
070514 H45  0.1+  0.0     070606 H51  0.1+  0.3-    070813 809  0.2-  0.2+
070514 379  0.4+  0.3-    070606 H51  0.2+  0.3-    070813 809 (1.9+  0.3+)
070514 379  0.4-  0.2+    070606 H51  0.3+  0.0     070813 809  0.2-  0.2+
070514 379  0.2-  0.0     070606 H51  0.3+  0.4-    070813 809  0.4-  0.2+
070514 379  0.2+  0.1+    070606 H51  0.1-  0.3-    070813 809  0.3-  0.2+
070514 379  0.2-  0.0     070606 H51  0.2+  0.3-    070813 809  0.4-  0.2+
070514 379  0.2-  0.0     070606 H51  0.1+  0.3-    070813 809  0.4-  0.1+
070514 355  0.1+  0.1+    070606 H51  0.1+  0.4-    070813 809  0.3-  0.2+
070514 355  0.2-  0.1+    070606 H51  0.1+  0.6-    070813 809  0.3-  0.2+
070514 355  0.1-  0.8+    070606 H51  0.1+  0.3-    070813 809  0.1-  0.2+
070514 355  0.3-  0.3+    070606 379  0.1+  0.3+    070813 809  0.1-  0.4+
070514 355  0.4-  0.6-    070606 379  0.0   0.5+    070813 809  0.2-  0.4+
070515 379  0.1+  0.1-    070606 379  0.4-  0.4+    070813 194  0.4+  0.1+
070515 379  0.1+  0.1+    070606 379  0.4-  0.3+    070813 194  0.2+  0.1+
070515 379  0.1+  0.6+    070606 379  0.3-  0.4+    070813 194  0.3+  0.1-
070515 379  0.6-  0.3+    070606 379  0.2-  0.0     070813 194  0.0   0.0
070515 379  0.4-  0.4+    070606 379  0.3-  0.0     070831 808  0.8-  0.5-
070515 379  0.2-  0.4+    070606 379  0.1-  0.4+    070831 808  0.1+  0.2+
070516 A24  0.5+  0.0     070606 379  0.2+  0.3+    070831 808  0.2+  0.1-
070516 703  0.1+  0.3-    070606 379  0.1-  0.6+    070901 E12  0.2+  0.4+
070516 703 (2.1+  0.9-)   070606 379  0.1+  0.4+    070901 E12  0.1-  0.0
070516 703 (1.8-  1.0-)   070606 379  0.1-  0.3+    070901 E12  0.5+  0.4+
070516 703  0.6-  0.3-    070606 379  0.1-  0.4+    070902 423  0.2+  0.0
070517 379  0.3+  0.0     070606 379  0.3+  0.4+    070902 423  0.2+  0.0
070517 379  0.2-  0.0     070609 H51  0.7+  1.2-    070918 808  0.4-  0.3+
070517 379  0.4-  0.3-    070609 H51  1.0-  0.0     070918 808  0.3+  0.4+
070517 379  0.2-  0.2-    070609 H51  0.0   0.3-    070918 808  0.4+  0.2+
070517 379  0.4-  0.1+    070609 H51  0.1-  0.2-    070918 E12  0.1-  0.2+
070517 379  0.0   0.2+    070610 461  0.2-  0.2+    070918 E12  0.1+  0.2+
070517 379  0.1-  0.3-    070610 461  0.0   0.0     070918 E12  0.3+  0.2+
070517 300  0.0   0.4+    070610 461  0.3-  0.3+    070918 E12  0.1+  0.3+
070517 300  0.2-  0.6+    070610 461  0.1+  0.0     070919 808 (0.4+  2.5-)
070517 379  0.2-  0.1-    070610 461  0.1-  0.1+    070919 808  0.1+  0.3+
070517 379  0.1+  0.0     070610 461  0.3-  0.3+    070919 808  0.3-  0.5-
070517 300  0.1+  0.1+    070610 461  0.1-  0.1+    071004 E12  0.7+  0.0
070517 379  0.0   0.0     070610 B19  0.4+  0.4-    071004 E12  0.3-  0.3+
070517 379  0.0   0.0     070610 B19  0.4+  0.4-    071004 E12  0.4+  0.4-
070517 379  0.1+  0.1-    070610 B19  0.6+  0.5-    071004 E12  0.2+  0.5-
070517 379  0.1-  0.2-    070611 379  0.0   0.3+    081126 H55  0.7-  0.5-
070517 300  0.3-  0.2+    070611 379  0.0   0.0     081126 H55  0.4+  0.2-
070517 300  0.1+  0.1+    070611 379  0.3-  0.5+    081126 H55  0.9-  0.2+
070517 300  0.3-  0.3+    070611 379  0.4-  0.2+    081127 H55  0.7-  0.1-
070517 300  0.2-  0.3+    070611 379  0.1+  0.2+    081127 H55  0.1+  0.3-
070517 300  0.2-  0.3+    070611 379  0.3-  0.5+
070517 300  0.1-  0.3+    070611 379  0.5-  0.4+

